TimeCDT,TemperatureF,Dew PointF,Humidity,Sea Level PressureIn,VisibilityMPH,Wind Direction,Wind SpeedMPH,Gust SpeedMPH,PrecipitationIn,Events,Conditions,WindDirDegrees,DateUTC
12:19 AM,68.0,64.4,88,29.71,7.0,South,5.8,-,N/A,,Mostly Cloudy,170,2013-03-18 05:19:00
12:44 AM,66.2,64.4,94,29.72,6.0,SSE,5.8,-,N/A,,Overcast,150,2013-03-18 05:44:00
12:53 AM,66.0,64.0,93,29.71,6.0,SSE,5.8,-,N/A,,Overcast,150,2013-03-18 05:53:00
1:53 AM,69.1,66.0,90,29.71,6.0,South,6.9,-,N/A,,Overcast,170,2013-03-18 06:53:00
2:53 AM,68.0,64.9,90,29.70,6.0,SSE,6.9,-,N/A,,Scattered Clouds,160,2013-03-18 07:53:00
3:12 AM,66.2,64.4,94,29.71,5.0,SSE,5.8,-,N/A,,Mostly Cloudy,160,2013-03-18 08:12:00
3:35 AM,66.2,64.4,94,29.71,4.0,SSE,6.9,-,N/A,,Overcast,150,2013-03-18 08:35:00
3:53 AM,68.0,64.9,90,29.70,5.0,SE,6.9,-,N/A,,Overcast,140,2013-03-18 08:53:00
4:30 AM,68.0,66.2,94,29.70,5.0,SE,4.6,-,N/A,,Overcast,130,2013-03-18 09:30:00
4:53 AM,69.1,66.0,90,29.70,4.0,SSE,11.5,-,N/A,,Overcast,150,2013-03-18 09:53:00
5:53 AM,69.1,66.0,90,29.71,6.0,South,6.9,-,N/A,,Overcast,180,2013-03-18 10:53:00
6:53 AM,68.0,64.9,90,29.73,7.0,South,10.4,-,N/A,,Overcast,170,2013-03-18 11:53:00
7:53 AM,69.1,64.0,84,29.76,6.0,NE,4.6,-,N/A,,Haze,50,2013-03-18 12:53:00
8:53 AM,70.0,64.0,81,29.80,7.0,Calm,Calm,-,N/A,,Overcast,0,2013-03-18 13:53:00
9:53 AM,71.1,63.0,75,29.81,8.0,East,4.6,-,N/A,,Mostly Cloudy,90,2013-03-18 14:53:00
10:30 AM,73.4,62.6,69,29.80,9.0,SE,8.1,-,N/A,,Scattered Clouds,140,2013-03-18 15:30:00
10:53 AM,75.0,64.0,69,29.80,9.0,East,4.6,-,N/A,,Clear,90,2013-03-18 15:53:00
11:53 AM,80.1,63.0,56,29.81,10.0,Variable,4.6,-,N/A,,Clear,0,2013-03-18 16:53:00
12:53 PM,84.9,62.1,46,29.79,10.0,Variable,5.8,-,N/A,,Clear,0,2013-03-18 17:53:00
1:53 PM,91.9,60.1,34,29.77,10.0,North,10.4,17.3,N/A,,Clear,10,2013-03-18 18:53:00
2:53 PM,97.0,44.1,16,29.74,10.0,NNW,18.4,24.2,N/A,,Clear,340,2013-03-18 19:53:00
3:53 PM,98.1,37.0,12,29.72,10.0,North,15.0,19.6,N/A,,Clear,10,2013-03-18 20:53:00
4:53 PM,98.1,37.0,12,29.71,10.0,North,10.4,16.1,N/A,,Clear,350,2013-03-18 21:53:00
5:53 PM,98.1,37.9,12,29.70,10.0,North,5.8,-,N/A,,Clear,350,2013-03-18 22:53:00
6:53 PM,96.1,33.1,11,29.72,10.0,WNW,11.5,-,N/A,,Clear,300,2013-03-18 23:53:00
7:53 PM,87.1,36.0,16,29.74,10.0,NW,8.1,-,N/A,,Clear,310,2013-03-19 00:53:00
8:53 PM,80.1,61.0,52,29.77,10.0,SE,5.8,-,N/A,,Clear,130,2013-03-19 01:53:00
9:53 PM,73.0,64.0,73,29.79,10.0,SE,9.2,-,N/A,,Clear,130,2013-03-19 02:53:00
10:53 PM,73.0,63.0,71,29.85,10.0,East,6.9,21.9,N/A,,Partly Cloudy,80,2013-03-19 03:53:00
11:53 PM,69.1,61.0,75,29.86,10.0,ESE,4.6,-,N/A,,Clear,110,2013-03-19 04:53:00